Location: Black Swamp Observatory
(41.3920°N, 84.1250°W)
Time: 10:02:34
(UTC-04:00)

Amateur Radio Satellites - All Passes

Search period start: 02 September 2014 09:32
Search period end: 03 September 2014 09:32
Location: Black Swamp Observatory, 41.3920°N, 84.1250°W

Satellite Date Start Highest point End Downlink Frequencies (MHz)
Time Altitude Azimuth
RS-15 02 Sep 09:35:34 09:46:24 59° 311° (NW) 09:57:12 29.354 - 29.394 USB, Beacon 29.352 USB
ISS 02 Sep 09:47:17 09:50:01 24° 134° (SE) 09:52:44 145.800 FM
UKube-1 02 Sep 09:59:10 10:01:12 13° 91° (E) 10:03:13 145.840 MHz, 145.915 MHz
HO-68 02 Sep 10:03:09 10:09:44 38° 98° (E) 10:16:16 435.675 MHz FM
KITSAT 1 02 Sep 11:11:37 11:16:26 17° 259° (W) 11:21:16 435.175 FM
ISS 02 Sep 11:23:24 11:26:35 42° 331° (NNW) 11:29:47 145.800 FM
UKube-1 02 Sep 11:33:29 11:37:44 56° 287° (WNW) 11:41:59 145.840 MHz, 145.915 MHz
Oscar 11 02 Sep 11:36:34 11:40:57 77° 284° (WNW) 11:45:18 145.825 FM, Beacon 2401.500 USB
HO-68 02 Sep 11:50:48 11:57:27 43° 295° (WNW) 12:04:04 435.675 MHz FM
RS-15 02 Sep 11:53:25 12:01:45 24° 341° (NNW) 12:10:10 29.354 - 29.394 USB, Beacon 29.352 USB
SO-50 02 Sep 11:54:12 11:58:28 31° 48° (NE) 12:02:46 436.795 FM
FUNcube-1 02 Sep 12:09:45 12:14:20 85° 284° (WNW) 12:18:57 145.950 - 145.970 MHz USB
JAS-1B 02 Sep 12:31:50 12:34:05 11° 48° (NE) 12:36:15 435.800 - 435.900 CW/SSB
Oscar 16 02 Sep 12:54:57 12:57:53 15° 60° (ENE) 13:00:48 437.025 USB, Beacon 2401.1428
MaSat-1 02 Sep 12:55:19 12:59:44 34° 107° (ESE) 13:04:22 437.345 MHz
ISS 02 Sep 13:01:51 13:03:59 16° 350° (N) 13:06:07 145.800 FM
PANSAT 02 Sep 13:10:01 13:11:34 12° 180° (S) 13:13:07 not established
AO-27 02 Sep 13:28:39 13:31:11 14° 59° (ENE) 13:33:43 436.795 MHz FM
SO-50 02 Sep 13:34:41 13:39:04 36° 245° (WSW) 13:43:29 436.795 FM
UOSAT-12 02 Sep 13:38:17 13:42:23 28° 46° (NE) 13:46:25 437.025 FM, 437.400 FM
Oscar 19 02 Sep 13:56:12 14:01:12 52° 71° (ENE) 14:06:14 437.125 CW, 437.150 USB
AO-Echo 02 Sep 14:01:45 14:05:56 28° 67° (ENE) 14:10:01 ?
RS-15 02 Sep 14:11:10 14:19:27 23° 18° (NNE) 14:27:52 29.354 - 29.394 USB, Beacon 29.352 USB
Gurwin Techsat 1B 02 Sep 14:12:18 14:15:26 16° 61° (ENE) 14:18:35 435.225 FM
JAS-1B 02 Sep 14:13:44 14:22:51 49° 67° (ENE) 14:30:56 435.800 - 435.900 CW/SSB
Oscar 16 02 Sep 14:31:28 14:36:36 72° 258° (WSW) 14:41:48 437.025 USB, Beacon 2401.1428
MaSat-1 02 Sep 14:32:15 14:36:44 32° 305° (NW) 14:41:22 437.345 MHz
ITAMSAT 1 02 Sep 14:35:10 14:40:11 53° 71° (ENE) 14:45:13 435.822 SSB
ISS 02 Sep 14:39:31 14:41:43 16° 11° (N) 14:43:54 145.800 FM
Uribyol 2 02 Sep 14:44:15 14:49:22 69° 73° (ENE) 14:54:30 436.500 FM
AO-7 02 Sep 14:44:37 14:48:52 15° 46° (NE) 14:53:07 29.400 - 29.500 MHz
TMSAT-1 02 Sep 15:00:09 15:04:44 31° 67° (ENE) 15:09:20 436.925 FM
AO-27 02 Sep 15:04:50 15:10:01 81° 256° (WSW) 15:15:13 436.795 MHz FM
UOSAT-12 02 Sep 15:18:14 15:22:38 39° 244° (WSW) 15:26:57 437.025 FM, 437.400 FM
Oscar 19 02 Sep 15:37:13 15:40:50 19° 268° (W) 15:44:29 437.125 CW, 437.150 USB
PCSat 02 Sep 15:39:54 15:40:19 10° 101° (E) 15:40:44 145.825 MHz
AO-Echo 02 Sep 15:40:05 15:44:35 33° 263° (W) 15:49:00 ?
Gurwin Techsat 1B 02 Sep 15:49:31 15:54:48 71° 258° (WSW) 16:00:07 435.225 FM
JAS-1B 02 Sep 16:04:09 16:13:17 44° 262° (W) 16:21:33 435.800 - 435.900 CW/SSB
ISS 02 Sep 16:15:49 16:19:04 47° 30° (NNE) 16:22:17 145.800 FM
ITAMSAT 1 02 Sep 16:16:28 16:19:59 18° 268° (W) 16:23:32 435.822 SSB
RS-15 02 Sep 16:24:11 16:35:01 56° 48° (NE) 16:46:13 29.354 - 29.394 USB, Beacon 29.352 USB
Uribyol 2 02 Sep 16:26:42 16:29:20 14° 270° (W) 16:31:59 436.500 FM
AO-7 02 Sep 16:31:53 16:40:04 64° 67° (ENE) 16:48:15 29.400 - 29.500 MHz
Uosat F 02 Sep 16:32:42 16:37:24 43° 70° (ENE) 16:42:08 435.120 FM
TMSAT-1 02 Sep 16:39:49 16:44:34 34° 264° (W) 16:49:21 436.925 FM
Sapphire 02 Sep 16:48:41 16:53:45 43° 112° (ESE) 16:58:51 437.095 MHz 1200 baud AX-25 AFSK
PCSat 02 Sep 17:17:25 17:22:49 82° 117° (ESE) 17:28:16 145.825 MHz
Hamsat 02 Sep 17:19:49 17:20:48 11° 61° (ENE) 17:21:47 145.90 MHz
ISS 02 Sep 17:53:00 17:55:35 21° 227° (SW) 17:58:10 145.800 FM
OPAL 02 Sep 18:04:54 18:10:05 59° 103° (ESE) 18:15:12 ?
Uosat F 02 Sep 18:12:32 18:16:21 22° 266° (W) 18:20:12 435.120 FM
JAS-2 02 Sep 18:25:40 18:31:33 59° 73° (ENE) 18:36:53 435.800 - 435.900 CW/SSB, 435.910 FM
AO-7 02 Sep 18:26:24 18:33:19 29° 265° (W) 18:40:16 29.400 - 29.500 MHz
Sapphire 02 Sep 18:32:37 18:37:19 29° 311° (NW) 18:42:02 437.095 MHz 1200 baud AX-25 AFSK
RS-15 02 Sep 18:36:53 18:47:12 46° 250° (WSW) 18:57:56 29.354 - 29.394 USB, Beacon 29.352 USB
Hamsat 02 Sep 18:51:47 18:56:06 77° 258° (WSW) 19:00:29 145.90 MHz
PCSat 02 Sep 19:03:15 19:06:55 18° 317° (NW) 19:10:36 145.825 MHz
SO-67 02 Sep 19:11:40 19:14:18 20° 70° (ENE) 19:16:56 435.3500 MHz FM
OPAL 02 Sep 19:44:52 19:48:29 19° 300° (WNW) 19:52:04 ?
STRAND 1 02 Sep 19:53:59 19:58:41 36° 97° (E) 20:03:20 ?
JAS-2 02 Sep 20:12:55 20:16:56 19° 267° (W) 20:20:45 435.800 - 435.900 CW/SSB, 435.910 FM
HO-68 02 Sep 20:32:24 20:38:21 30° 60° (ENE) 20:44:19 435.675 MHz FM
SO-67 02 Sep 20:44:30 20:47:14 22° 265° (W) 20:49:59 435.3500 MHz FM
UKube-1 02 Sep 20:55:30 20:57:26 13° 62° (ENE) 20:59:23 145.840 MHz, 145.915 MHz
STRAND 1 02 Sep 21:33:26 21:37:43 28° 294° (WNW) 21:42:00 ?
KITSAT 1 02 Sep 21:53:38 21:55:54 11° 97° (E) 21:58:09 435.175 FM
HO-68 02 Sep 22:18:41 22:25:39 56° 258° (WSW) 22:32:41 435.675 MHz FM
UKube-1 02 Sep 22:28:49 22:33:06 64° 258° (WSW) 22:37:26 145.840 MHz, 145.915 MHz
Oscar 11 02 Sep 22:31:22 22:35:42 84° 76° (ENE) 22:40:05 145.825 FM, Beacon 2401.500 USB
MaSat-1 02 Sep 22:49:23 22:53:54 68° 62° (ENE) 22:57:45 437.345 MHz
Saudisat 1A 02 Sep 22:55:46 23:00:11 88° 303° (WNW) 23:04:37 436.775 MHz
FUNcube-1 02 Sep 23:06:17 23:10:28 77° 76° (ENE) 23:14:46 145.950 - 145.970 MHz USB
KITSAT 1 02 Sep 23:41:46 23:49:45 67° 115° (ESE) 23:57:46 435.175 FM
PCSat 03 Sep 00:23:47 00:26:16 13° 38° (NE) 00:28:45 145.825 MHz
Saudisat 1A 03 Sep 00:38:07 00:40:25 14° 322° (NW) 00:42:44 436.775 MHz
Sapphire 03 Sep 01:36:26 01:41:28 37° 52° (NE) 01:46:27 437.095 MHz 1200 baud AX-25 AFSK
KITSAT 1 03 Sep 01:38:36 01:45:44 33° 317° (NW) 01:52:53 435.175 FM
PCSat 03 Sep 02:05:21 02:10:46 66° 58° (ENE) 02:16:09 145.825 MHz
Oscar 19 03 Sep 02:08:47 02:12:20 18° 92° (E) 02:15:52 437.125 CW, 437.150 USB
Oscar 16 03 Sep 02:43:17 02:48:11 40° 98° (E) 02:53:02 437.025 USB, Beacon 2401.1428
ITAMSAT 1 03 Sep 02:48:56 02:52:33 19° 92° (E) 02:56:09 435.822 SSB
Uribyol 2 03 Sep 02:57:32 03:01:45 24° 94° (E) 03:05:56 436.500 FM
TMSAT-1 03 Sep 03:17:58 03:19:37 11° 88° (E) 03:21:16 436.925 FM
AO-27 03 Sep 03:18:03 03:22:50 36° 97° (E) 03:27:35 436.795 MHz FM
Sapphire 03 Sep 03:20:00 03:24:48 33° 250° (WSW) 03:29:36 437.095 MHz 1200 baud AX-25 AFSK
KITSAT 1 03 Sep 03:40:54 03:44:12 13° 345° (NNW) 03:47:29 435.175 FM
OPAL 03 Sep 03:44:05 03:46:49 15° 57° (ENE) 03:49:34 ?
AO-Echo 03 Sep 03:46:30 03:51:13 76° 103° (ESE) 03:55:57 ?
Oscar 19 03 Sep 03:46:56 03:52:00 54° 288° (WNW) 03:57:02 437.125 CW, 437.150 USB
SO-50 03 Sep 03:49:14 03:53:41 76° 121° (ESE) 03:58:16 436.795 FM
PCSat 03 Sep 03:50:11 03:53:36 17° 255° (WSW) 03:57:01 145.825 MHz
JAS-1B 03 Sep 03:51:07 03:57:37 63° 101° (E) 04:03:20 435.800 - 435.900 CW/SSB
Gurwin Techsat 1B 03 Sep 04:05:46 04:10:53 46° 99° (E) 04:15:57 435.225 FM
Oscar 16 03 Sep 04:23:05 04:27:19 26° 295° (WNW) 04:31:31 437.025 USB, Beacon 2401.1428
ITAMSAT 1 03 Sep 04:27:18 04:32:20 53° 289° (WNW) 04:37:22 435.822 SSB
AO-7 03 Sep 04:34:57 04:40:28 19° 91° (E) 04:45:58 29.400 - 29.500 MHz
Uribyol 2 03 Sep 04:36:29 04:41:20 41° 291° (WNW) 04:46:11 436.500 FM
Uosat F 03 Sep 04:42:11 04:44:21 13° 90° (E) 04:46:31 435.120 FM
TMSAT-1 03 Sep 04:54:51 05:00:11 85° 285° (WNW) 05:05:29 436.925 FM
AO-27 03 Sep 04:57:49 05:02:12 28° 294° (WNW) 05:06:34 436.795 MHz FM
OPAL 03 Sep 05:19:57 05:25:01 78° 255° (WSW) 05:30:12 ?
AO-Echo 03 Sep 05:27:32 05:29:22 12° 299° (WNW) 05:31:13 ?
UOSAT-12 03 Sep 05:28:54 05:33:26 62° 119° (ESE) 05:38:05 437.025 FM, 437.400 FM
SO-50 03 Sep 05:31:53 05:34:48 17° 321° (NW) 05:37:46 436.795 FM
KITSAT 1 03 Sep 05:40:31 05:44:02 13° 17° (NNE) 05:47:32 435.175 FM
JAS-1B 03 Sep 05:42:55 05:47:32 20° 304° (WNW) 05:51:46 435.800 - 435.900 CW/SSB
Saudisat 1A 03 Sep 05:44:44 05:46:33 12° 36° (NE) 05:48:22 436.775 MHz
Gurwin Techsat 1B 03 Sep 05:46:25 05:50:32 23° 296° (WNW) 05:54:38 435.225 FM
Uosat F 03 Sep 06:18:39 06:23:39 73° 286° (WNW) 06:28:38 435.120 FM
AO-7 03 Sep 06:25:52 06:34:12 86° 289° (WNW) 06:42:28 29.400 - 29.500 MHz
TMSAT-1 03 Sep 06:37:24 06:39:16 12° 302° (WNW) 06:41:08 436.925 FM
Hamsat 03 Sep 06:38:28 06:41:34 19° 93° (E) 06:44:38 145.90 MHz
RS-15 03 Sep 06:49:44 06:58:51 31° 105° (ESE) 07:07:48 29.354 - 29.394 USB, Beacon 29.352 USB
STRAND 1 03 Sep 07:09:57 07:14:52 52° 71° (ENE) 07:19:49 ?
UOSAT-12 03 Sep 07:10:34 07:14:00 20° 318° (NW) 07:17:29 437.025 FM, 437.400 FM
JAS-2 03 Sep 07:18:32 07:23:42 49° 100° (E) 07:29:20 435.800 - 435.900 CW/SSB, 435.910 FM
Saudisat 1A 03 Sep 07:22:29 07:26:55 74° 56° (NE) 07:31:18 436.775 MHz
KITSAT 1 03 Sep 07:35:05 07:42:22 35° 44° (NE) 07:49:35 435.175 FM
SO-67 03 Sep 08:07:46 08:10:36 23° 95° (E) 08:13:25 435.3500 MHz FM
Hamsat 03 Sep 08:13:39 08:17:40 37° 289° (WNW) 08:21:37 145.90 MHz
AO-7 03 Sep 08:20:11 08:25:51 21° 309° (NW) 08:31:31 29.400 - 29.500 MHz
STRAND 1 03 Sep 08:50:53 08:54:22 18° 268° (W) 08:57:51 ?
RS-15 03 Sep 08:59:09 09:10:12 73° 306° (NW) 09:21:10 29.354 - 29.394 USB, Beacon 29.352 USB
ISS 03 Sep 08:59:52 09:01:38 14° 130° (SE) 09:03:25 145.800 FM
Saudisat 1A 03 Sep 09:04:27 09:05:52 11° 252° (WSW) 09:07:17 436.775 MHz
JAS-2 03 Sep 09:04:34 09:08:34 22° 295° (WNW) 09:12:47 435.800 - 435.900 CW/SSB, 435.910 FM
